TimePDT,TemperatureF,Dew PointF,Humidity,Sea Level PressureIn,VisibilityMPH,Wind Direction,Wind SpeedMPH,Gust SpeedMPH,PrecipitationIn,Events,Conditions,WindDirDegrees,DateUTC
12:58 AM,63.3,53.8,71,30.18,10.0,South,16.1,-,N/A,,Mostly Cloudy,170,2013-08-07 07:58:00
1:58 AM,61.7,53.6,75,30.19,10.0,South,16.1,23.0,N/A,,Mostly Cloudy,170,2013-08-07 08:58:00
2:58 AM,61.0,53.8,77,30.20,10.0,South,13.8,-,N/A,,Overcast,170,2013-08-07 09:58:00
3:58 AM,59.9,54.0,81,30.20,10.0,SSE,13.8,-,N/A,,Mostly Cloudy,160,2013-08-07 10:58:00
4:58 AM,58.8,54.0,84,30.20,10.0,SSE,13.8,-,N/A,,Scattered Clouds,160,2013-08-07 11:58:00
5:58 AM,58.5,54.0,85,30.21,10.0,SSE,13.8,-,N/A,,Clear,150,2013-08-07 12:58:00
6:48 AM,59.0,53.6,82,30.00,10.0,SSE,13.8,-,N/A,,Mostly Cloudy,160,2013-08-07 13:48:00
6:58 AM,58.8,54.1,84,30.22,10.0,SSE,15.0,-,N/A,,Mostly Cloudy,160,2013-08-07 13:58:00
7:58 AM,60.8,54.3,79,30.25,10.0,SSE,16.1,-,N/A,,Mostly Cloudy,150,2013-08-07 14:58:00
8:20 AM,62.6,53.6,72,30.03,10.0,SSE,16.1,-,N/A,,Scattered Clouds,160,2013-08-07 15:20:00
8:58 AM,63.7,53.4,69,30.27,10.0,SSE,18.4,-,N/A,,Partly Cloudy,160,2013-08-07 15:58:00
9:58 AM,66.6,52.5,61,30.27,10.0,South,15.0,18.4,N/A,,Clear,170,2013-08-07 16:58:00
10:58 AM,69.6,52.5,54,30.27,10.0,South,9.2,-,N/A,,Clear,170,2013-08-07 17:58:00
11:58 AM,73.2,53.4,50,30.26,10.0,South,9.2,-,N/A,,Clear,180,2013-08-07 18:58:00
12:58 PM,76.5,53.6,45,30.25,10.0,South,12.7,-,N/A,,Clear,190,2013-08-07 19:58:00
1:58 PM,78.1,55.2,45,30.24,10.0,SSW,12.7,-,N/A,,Clear,200,2013-08-07 20:58:00
2:58 PM,80.4,54.7,41,30.22,10.0,South,11.5,-,N/A,,Clear,190,2013-08-07 21:58:00
3:58 PM,81.9,54.7,39,30.20,10.0,South,10.4,-,N/A,,Clear,190,2013-08-07 22:58:00
4:58 PM,82.2,54.0,38,30.19,10.0,South,15.0,-,N/A,,Clear,190,2013-08-07 23:58:00
5:58 PM,81.7,55.0,40,30.18,10.0,South,12.7,-,N/A,,Clear,190,2013-08-08 00:58:00
6:58 PM,79.5,56.1,44,30.17,10.0,South,13.8,-,N/A,,Clear,190,2013-08-08 01:58:00
7:58 PM,73.6,56.8,56,30.18,10.0,South,10.4,-,N/A,,Clear,180,2013-08-08 02:58:00
8:58 PM,68.5,56.1,64,30.19,10.0,South,10.4,-,N/A,,Clear,180,2013-08-08 03:58:00
9:58 PM,64.9,55.6,72,30.20,10.0,South,8.1,-,N/A,,Clear,170,2013-08-08 04:58:00
10:58 PM,64.4,55.0,72,30.22,10.0,SSE,8.1,-,N/A,,Clear,160,2013-08-08 05:58:00
11:58 PM,62.6,54.9,76,30.20,10.0,South,10.4,-,N/A,,Clear,170,2013-08-08 06:58:00